When you browse on this site, cookies collect data to enhance your experience and personalize the content and advertising you see.
Visit our Privacy Policy to learn more. By continuing to use the site, you agree to this use of cookies and data.
EN

Hourly Weather Pushkinskiy

Today, 29 September, Tuesday

Time Temperature Precipitation Wind Pressure Humidity
00:00 +10°C° 0 mm 1 mps 753 mmHg 88%
01:00 +9°C° 0 mm 1 mps 753 mmHg 89%
02:00 +9°C° 0 mm 1 mps 753 mmHg 89%
03:00 +9°C° 0 mm 1 mps 753 mmHg 90%
04:00 +8°C° 0 mm 1 mps 753 mmHg 90%
05:00 +8°C° 0 mm 1 mps 753 mmHg 91%
06:00 +8°C° 0 mm 1 mps 753 mmHg 91%
07:00 +8°C° 0 mm 1 mps 753 mmHg 91%
08:00 +10°C° 0 mm 1 mps 753 mmHg 85%
09:00 +12°C° 0 mm 1 mps 753 mmHg 79%
10:00 +14°C° 0 mm 1 mps 753 mmHg 73%
11:00 +15°C° 0 mm 1 mps 753 mmHg 68%
12:00 +16°C° 0 mm 1 mps 753 mmHg 63%
13:00 +18°C° 0 mm 1 mps 753 mmHg 58%
14:00 +18°C° 0 mm 1 mps 753 mmHg 58%
15:00 +18°C° 0 mm 1 mps 753 mmHg 57%
16:00 +18°C° 0 mm 1 mps 753 mmHg 57%
17:00 +16°C° 0 mm 1 mps 753 mmHg 63%
18:00 +14°C° 0 mm 1 mps 753 mmHg 69%
19:00 +13°C° 0 mm 1 mps 752 mmHg 76%
20:00 +12°C° 0 mm 1 mps 753 mmHg 78%
21:00 +12°C° 0 mm 1 mps 753 mmHg 80%
22:00 +11°C° 0 mm 1 mps 753 mmHg 82%
23:00 +11°C° 0 mm 1 mps 753 mmHg 83%

Tomorrow, 30 September, Wednesday

Time Temperature Precipitation Wind Pressure Humidity
00:00 +11°C° 0 mm 1 mps 753 mmHg 84%
01:00 +11°C° 0 mm 1 mps 752 mmHg 84%
02:00 +10°C° 0 mm 1 mps 753 mmHg 84%
03:00 +10°C° 0 mm 1 mps 753 mmHg 84%
04:00 +10°C° 0 mm 1 mps 753 mmHg 84%
05:00 +9°C° 0 mm 0 mps 753 mmHg 83%
06:00 +9°C° 0 mm 0 mps 753 mmHg 82%
07:00 +9°C° 0 mm 0 mps 752 mmHg 81%
08:00 +10°C° 0 mm 0 mps 753 mmHg 75%
09:00 +12°C° 0 mm 0 mps 753 mmHg 69%
10:00 +14°C° 0 mm 0 mps 753 mmHg 63%
11:00 +15°C° 0 mm 0 mps 753 mmHg 60%
12:00 +18°C° 0 mm 1 mps 752 mmHg 56%
13:00 +19°C° 0 mm 1 mps 752 mmHg 53%
14:00 +19°C° 0 mm 1 mps 752 mmHg 55%
15:00 +19°C° 0 mm 1 mps 752 mmHg 57%
16:00 +18°C° 0 mm 2 mps 752 mmHg 59%
17:00 +16°C° 0 mm 2 mps 752 mmHg 66%
18:00 +14°C° 0 mm 2 mps 751 mmHg 73%
19:00 +13°C° 0 mm 1 mps 751 mmHg 80%
20:00 +12°C° 0 mm 1 mps 751 mmHg 82%
21:00 +12°C° 0 mm 1 mps 751 mmHg 84%
22:00 +11°C° 0 mm 1 mps 752 mmHg 87%
23:00 +11°C° 0 mm 1 mps 752 mmHg 87%

Day after tomorrow, 1 October, Thursday

Time Temperature Precipitation Wind Pressure Humidity
00:00 +11°C° 0 mm 1 mps 751 mmHg 88%
01:00 +10°C° 0 mm 1 mps 751 mmHg 89%
02:00 +10°C° 0 mm 1 mps 751 mmHg 89%
03:00 +10°C° 0 mm 1 mps 752 mmHg 89%
04:00 +10°C° 0 mm 1 mps 752 mmHg 90%
05:00 +10°C° 0 mm 1 mps 752 mmHg 90%
06:00 +9°C° 0 mm 1 mps 752 mmHg 91%
07:00 +9°C° 0 mm 1 mps 752 mmHg 91%
08:00 +11°C° 0 mm 1 mps 752 mmHg 85%
09:00 +13°C° 0 mm 1 mps 752 mmHg 78%
10:00 +13°C° 0 mm 0 mps 752 mmHg 72%
11:00 +15°C° 0 mm 1 mps 751 mmHg 67%
12:00 +16°C° 0 mm 1 mps 751 mmHg 63%
13:00 +18°C° 0 mm 1 mps 751 mmHg 58%
14:00 +18°C° 0 mm 1 mps 751 mmHg 59%
15:00 +18°C° 0 mm 1 mps 751 mmHg 59%
16:00 +18°C° 0 mm 1 mps 751 mmHg 59%
17:00 +16°C° 0 mm 1 mps 750 mmHg 66%
18:00 +14°C° 0 mm 1 mps 750 mmHg 72%
19:00 +13°C° 0 mm 1 mps 750 mmHg 79%
20:00 +12°C° 0 mm 1 mps 750 mmHg 81%
21:00 +12°C° 0 mm 1 mps 750 mmHg 82%
22:00 +10°C° 0 mm 0 mps 750 mmHg 84%
23:00 +10°C° 0 mm 0 mps 750 mmHg 85%

2 October, Friday

Time Temperature Precipitation Wind Pressure Humidity
00:00 +10°C° 0 mm 0 mps 750 mmHg 85%
01:00 +9°C° 0 mm 0 mps 750 mmHg 86%
02:00 +9°C° 0 mm 0 mps 750 mmHg 86%
03:00 +9°C° 0 mm 0 mps 750 mmHg 87%
04:00 +9°C° 0 mm 0 mps 750 mmHg 87%
05:00 +9°C° 0 mm 0 mps 750 mmHg 88%
06:00 +8°C° 0 mm 0 mps 750 mmHg 88%
07:00 +8°C° 0 mm 0 mps 750 mmHg 88%
08:00 +10°C° 0 mm 0 mps 750 mmHg 82%
09:00 +12°C° 0 mm 0 mps 750 mmHg 76%
10:00 +13°C° 0 mm 0 mps 750 mmHg 70%
11:00 +14°C° 0 mm 0 mps 750 mmHg 67%
12:00 +16°C° 0 mm 1 mps 750 mmHg 63%
13:00 +18°C° 0 mm 1 mps 749 mmHg 60%
14:00 +18°C° 0 mm 1 mps 749 mmHg 59%
15:00 +18°C° 0 mm 1 mps 749 mmHg 59%
16:00 +18°C° 0 mm 1 mps 749 mmHg 59%
17:00 +16°C° 0 mm 1 mps 749 mmHg 65%
18:00 +14°C° 0 mm 1 mps 749 mmHg 71%
19:00 +13°C° 0 mm 1 mps 749 mmHg 77%
20:00 +12°C° 0 mm 1 mps 749 mmHg 79%
21:00 +11°C° 0 mm 0 mps 749 mmHg 81%
22:00 +10°C° 0 mm 0 mps 749 mmHg 83%
23:00 +10°C° 0 mm 0 mps 748 mmHg 84%

3 October, Saturday

Time Temperature Precipitation Wind Pressure Humidity
00:00 +9°C° 0 mm 0 mps 748 mmHg 84%
01:00 +9°C° 0 mm 0 mps 748 mmHg 85%
02:00 +9°C° 0 mm 0 mps 748 mmHg 86%
03:00 +9°C° 0 mm 0 mps 748 mmHg 86%
04:00 +8°C° 0 mm 0 mps 748 mmHg 87%
05:00 +9°C° 0 mm 0 mps 748 mmHg 88%
06:00 +9°C° 0 mm 0 mps 748 mmHg 88%
07:00 +9°C° 0 mm 0 mps 748 mmHg 89%
08:00 +11°C° 0 mm 1 mps 748 mmHg 84%
09:00 +12°C° 0 mm 1 mps 748 mmHg 79%
10:00 +14°C° 0 mm 1 mps 747 mmHg 74%
11:00 +14°C° 0 mm 2 mps 747 mmHg 68%
12:00 +15°C° 0 mm 2 mps 747 mmHg 63%
13:00 +16°C° 0 mm 3 mps 747 mmHg 58%
14:00 +16°C° 0 mm 3 mps 747 mmHg 59%
15:00 +16°C° 0 mm 3 mps 747 mmHg 60%
16:00 +16°C° 0 mm 3 mps 747 mmHg 61%
17:00 +14°C° 0 mm 2 mps 747 mmHg 67%
18:00 +13°C° 0 mm 2 mps 747 mmHg 74%
19:00 +12°C° 0 mm 2 mps 747 mmHg 81%
20:00 +10°C° 0 mm 2 mps 747 mmHg 84%
21:00 +9°C° 0 mm 2 mps 747 mmHg 87%
22:00 +10°C° 0 mm 1 mps 748 mmHg 90%
23:00 +9°C° 0 mm 1 mps 748 mmHg 91%

4 October, Sunday

Time Temperature Precipitation Wind Pressure Humidity
00:00 +9°C° 0 mm 1 mps 748 mmHg 91%
01:00 +9°C° 0 mm 1 mps 748 mmHg 92%
02:00 +8°C° 0 mm 1 mps 748 mmHg 91%
03:00 +8°C° 0 mm 1 mps 748 mmHg 91%
04:00 +8°C° 0 mm 1 mps 748 mmHg 90%
05:00 +8°C° 0 mm 1 mps 748 mmHg 90%
06:00 +7°C° 0 mm 1 mps 748 mmHg 90%
07:00 +6°C° 0 mm 2 mps 749 mmHg 90%
08:00 +8°C° 0 mm 2 mps 749 mmHg 84%
09:00 +9°C° 0 mm 2 mps 749 mmHg 78%
10:00 +12°C° 0 mm 2 mps 749 mmHg 72%
11:00 +12°C° 0 mm 2 mps 749 mmHg 68%
12:00 +13°C° 0 mm 2 mps 749 mmHg 63%
13:00 +14°C° 0 mm 2 mps 749 mmHg 59%
14:00 +14°C° 0.1 mm 2 mps 749 mmHg 59%
15:00 +14°C° 0.1 mm 2 mps 749 mmHg 60%
16:00 +12°C° 0.1 mm 3 mps 749 mmHg 61%
17:00 +11°C° 0.1 mm 3 mps 749 mmHg 67%
18:00 +10°C° 0.1 mm 3 mps 749 mmHg 73%
19:00 +9°C° 0.1 mm 3 mps 749 mmHg 79%
20:00 +8°C° 0 mm 3 mps 749 mmHg 80%
21:00 +7°C° 0 mm 3 mps 749 mmHg 81%
22:00 +7°C° 0 mm 3 mps 749 mmHg 81%
23:00 +5°C° 0 mm 3 mps 749 mmHg 84%
Show more